Location: Burgerwiesen
(48.6500°N, 15.6167°E)
Time: 08:57:17
(UTC+00:00)

Landsat 7 - Pass Details

Date: 09 April 2020
Orbit: 701 x 703 km, 98.1° (Epoch: 01 June)

Event Time Altitude Azimuth Distance (km) Brightness Sun altitude
Exits shadow 19:47:18 42° 129° (SE) 1,001 4.1 -19.5°
Maximum altitude 19:48:41 60° 71° (ENE) 804 3.9 -19.7°
Drops below altitude 10° 19:53:23 10° 353° (N) 2,182 7.0 -20.3°
Sets 19:55:40 0° 350° (N) 3,105 8.0 -20.6°
